Time [10min],Date,AE,AE1ch,AE2ch,Temperature,Humidity,Vaper Deficit,Illuminance,CO2,Pressure,SoilTemp,SoilWater,SolutionEC,Dielectricity,PoreEC,SoilEC,DC1ch,DC2ch,KUROA0010089,KUROA0010089,
0,2024/01/01 00:00,,,,6.89,71.26,7.70,0,356,0,,,,,,,,,
1,2024/01/01 00:10,,,,7.32,71.17,7.92,0,354,0,,,,,,,,,
2,2024/01/01 00:20,,,,7.80,71.00,8.17,0,347,0,,,,,,,,,
3,2024/01/01 00:30,,,,7.87,70.94,8.21,0,349,0,,,,,,,,,
4,2024/01/01 00:40,,,,7.84,70.88,8.19,0,345,0,,,,,,,,,
5,2024/01/01 00:50,,,,8.09,70.75,8.33,0,354,0,,,,,,,,,
6,2024/01/01 01:00,,,,8.36,70.64,8.48,0,344,0,,,,,,,,,
7,2024/01/01 01:10,,,,8.66,70.37,8.64,0,348,0,,,,,,,,,
8,2024/01/01 01:20,1,0,1,8.44,70.40,8.52,0,337,0,,,,,,,,,
9,2024/01/01 01:30,1,0,1,8.23,70.33,8.41,0,340,0,,,,,,,,,
10,2024/01/01 01:40,,,,8.97,69.89,8.81,0,353,0,,,,,,,,,
11,2024/01/01 01:50,,,,9.96,69.16,9.38,0,360,0,,,,,,,,,
12,2024/01/01 02:00,,,,10.42,68.46,9.67,0,353,0,,,,,,,,,
13,2024/01/01 02:10,3,0,3,10.71,67.82,9.84,0,346,0,,,,,,,,,
14,2024/01/01 02:20,1,0,1,10.82,67.27,9.91,0,344,0,,,,,,,,,
15,2024/01/01 02:30,,,,10.77,66.81,9.88,0,341,0,,,,,,,,,
16,2024/01/01 02:40,,,,10.48,66.46,9.70,0,341,0,,,,,,,,,
17,2024/01/01 02:50,,,,10.27,66.14,9.57,0,340,0,,,,,,,,,
18,2024/01/01 03:00,,,,10.17,65.77,9.51,0,333,0,,,,,,,,,
19,2024/01/01 03:10,2,0,2,10.24,65.21,9.55,0,331,0,,,,,,,,,
20,2024/01/01 03:20,7,0,7,10.42,64.64,9.66,0,330,0,,,,,,,,,
21,2024/01/01 03:30,1,0,1,10.44,64.26,9.68,0,335,0,,,,,,,,,
22,2024/01/01 03:40,1,0,1,10.38,63.92,9.64,0,333,0,,,,,,,,,
23,2024/01/01 03:50,2,0,2,10.22,63.71,9.54,0,328,0,,,,,,,,,
24,2024/01/01 04:00,,,,10.08,63.40,9.46,0,323,0,,,,,,,,,
25,2024/01/01 04:10,,,,10.03,63.09,9.43,0,329,0,,,,,,,,,
26,2024/01/01 04:20,,,,9.91,62.79,9.36,0,325,0,,,,,,,,,
27,2024/01/01 04:30,3,0,3,10.03,62.31,9.43,0,326,0,,,,,,,,,
28,2024/01/01 04:40,2,0,2,9.94,61.90,9.38,0,329,0,,,,,,,,,
29,2024/01/01 04:50,1,0,1,9.85,61.60,9.32,0,324,0,,,,,,,,,
30,2024/01/01 05:00,1,0,1,9.89,61.24,9.34,0,336,0,,,,,,,,,
31,2024/01/01 05:10,,,,9.70,61.01,9.23,0,324,0,,,,,,,,,
32,2024/01/01 05:20,,,,9.60,60.77,9.17,0,324,0,,,,,,,,,
33,2024/01/01 05:30,1,0,1,9.48,60.50,9.10,0,325,0,,,,,,,,,
34,2024/01/01 05:40,2,0,2,9.24,60.34,8.97,0,322,0,,,,,,,,,
35,2024/01/01 05:50,1,0,1,9.10,60.13,8.89,0,324,0,,,,,,,,,
36,2024/01/01 06:00,,,,8.99,59.91,8.82,0,317,0,,,,,,,,,
37,2024/01/01 06:10,,,,8.89,59.67,8.77,3,318,0,,,,,,,,,
38,2024/01/01 06:20,,,,8.82,59.40,8.73,4,315,0,,,,,,,,,
39,2024/01/01 06:30,1,0,1,8.74,59.18,8.69,5,315,0,,,,,,,,,
40,2024/01/01 06:40,,,,8.40,59.09,8.50,53,303,0,,,,,,,,,
41,2024/01/01 06:50,1,0,1,8.17,59.00,8.37,179,307,0,,,,,,,,,
42,2024/01/01 07:00,1,0,1,8.33,58.69,8.46,340,320,0,,,,,,,,,
43,2024/01/01 07:10,5,0,5,8.52,58.35,8.56,578,321,0,,,,,,,,,
44,2024/01/01 07:20,1,0,1,8.76,57.94,8.69,945,326,0,,,,,,,,,
45,2024/01/01 07:30,,,,9.02,57.44,8.84,1262,326,0,,,,,,,,,
46,2024/01/01 07:40,2,0,2,9.33,57.00,9.02,2299,309,0,,,,,,,,,
47,2024/01/01 07:50,1,0,1,10.48,56.06,9.70,3127,334,0,,,,,,,,,
48,2024/01/01 08:00,,,,11.27,55.17,10.19,2842,336,0,,,,,,,,,
49,2024/01/01 08:10,,,,11.18,54.96,10.14,2554,343,0,,,,,,,,,
50,2024/01/01 08:20,1,0,1,10.59,55.13,9.77,2402,329,0,,,,,,,,,
51,2024/01/01 08:30,9,0,9,10.32,55.04,9.61,2565,315,0,,,,,,,,,
52,2024/01/01 08:40,10,0,10,10.31,54.77,9.60,2532,347,0,,,,,,,,,
53,2024/01/01 08:50,14,0,14,10.69,54.30,9.83,4571,314,0,,,,,,,,,
54,2024/01/01 09:00,,,,11.03,53.65,10.05,2887,337,0,,,,,,,,,
55,2024/01/01 09:10,11,0,11,11.06,53.33,10.06,3557,348,0,,,,,,,,,
56,2024/01/01 09:20,5,0,5,11.64,52.63,10.44,4377,333,0,,,,,,,,,
57,2024/01/01 09:30,1,0,1,12.03,51.93,10.70,5490,329,0,,,,,,,,,
58,2024/01/01 09:40,4,0,4,12.37,51.32,10.92,5316,352,0,,,,,,,,,
59,2024/01/01 09:50,2,0,2,12.34,51.23,10.90,5811,348,0,,,,,,,,,
60,2024/01/01 10:00,3,0,3,12.96,50.49,11.33,6742,345,0,,,,,,,,,
61,2024/01/01 10:10,2,0,2,15.18,47.77,12.98,15296,350,0,,,,,,,,,
62,2024/01/01 10:20,2,0,2,17.43,44.51,14.87,17945,350,0,,,,,,,,,
63,2024/01/01 10:30,6,0,6,19.36,42.08,16.67,15287,341,0,,,,,,,,,
64,2024/01/01 10:40,7,0,7,19.62,41.43,16.93,11274,351,0,,,,,,,,,
65,2024/01/01 10:50,5,0,5,19.56,41.07,16.86,8241,357,0,,,,,,,,,
66,2024/01/01 11:00,2,0,2,19.38,40.97,16.69,8712,350,0,,,,,,,,,
67,2024/01/01 11:10,3,0,3,20.19,40.03,17.50,12407,342,0,,,,,,,,,
68,2024/01/01 11:20,5,0,5,20.36,39.71,17.67,21806,350,0,,,,,,,,,
69,2024/01/01 11:30,13,0,13,19.39,40.26,16.70,11912,350,0,,,,,,,,,
70,2024/01/01 11:40,1,0,1,19.60,40.09,16.91,39680,343,0,,,,,,,,,
71,2024/01/01 11:50,3,0,3,19.83,39.84,17.14,50289,343,0,,,,,,,,,
72,2024/01/01 12:00,5,0,5,19.24,40.10,16.55,35398,343,0,,,,,,,,,
73,2024/01/01 12:10,,,,19.44,39.67,16.75,16742,352,0,,,,,,,,,
74,2024/01/01 12:20,3,0,3,20.05,38.89,17.36,19522,342,0,,,,,,,,,
75,2024/01/01 12:30,3,0,3,21.01,37.83,18.36,32313,341,0,,,,,,,,,
76,2024/01/01 12:40,9,0,9,21.90,36.38,19.33,73256,338,0,,,,,,,,,
77,2024/01/01 12:50,8,0,8,22.56,35.59,20.07,85626,332,0,,,,,,,,,
78,2024/01/01 13:00,7,0,7,22.76,34.91,20.30,76309,329,0,,,,,,,,,
79,2024/01/01 13:10,4,0,4,22.76,34.11,20.30,78806,344,0,,,,,,,,,
80,2024/01/01 13:20,7,0,7,23.34,33.34,20.98,45747,328,0,,,,,,,,,
81,2024/01/01 13:30,7,0,7,23.68,32.87,21.40,0,324,0,,,,,,,,,
82,2024/01/01 13:40,12,0,12,23.62,32.91,21.33,0,335,0,,,,,,,,,
83,2024/01/01 13:50,11,0,11,22.81,33.24,20.36,73860,337,0,,,,,,,,,
84,2024/01/01 14:00,18,0,18,18.06,36.83,15.43,6097,349,0,,,,,,,,,
85,2024/01/01 14:10,8,0,8,13.82,41.11,11.95,6777,339,0,,,,,,,,,
86,2024/01/01 14:20,13,0,13,12.44,42.51,10.97,15981,323,0,,,,,,,,,
87,2024/01/01 14:30,4,0,4,12.70,42.35,11.15,11858,334,0,,,,,,,,,
88,2024/01/01 14:40,3,0,3,11.90,42.96,10.61,4670,321,0,,,,,,,,,
89,2024/01/01 14:50,5,0,5,11.30,43.58,10.22,3258,328,0,,,,,,,,,
90,2024/01/01 15:00,3,0,3,10.77,44.13,9.88,2735,327,0,,,,,,,,,
91,2024/01/01 15:10,1,0,1,10.49,44.43,9.71,7716,318,0,,,,,,,,,
92,2024/01/01 15:20,2,0,2,11.00,43.90,10.02,8395,327,0,,,,,,,,,
93,2024/01/01 15:30,3,0,3,10.28,44.46,9.58,1772,322,0,,,,,,,,,
94,2024/01/01 15:40,1,0,1,9.88,44.86,9.34,1450,313,0,,,,,,,,,
95,2024/01/01 15:50,1,0,1,9.43,45.18,9.08,1202,316,0,,,,,,,,,
96,2024/01/01 16:00,,,,9.19,45.37,8.93,955,314,0,,,,,,,,,
97,2024/01/01 16:10,2,0,2,8.97,45.48,8.81,705,312,0,,,,,,,,,
98,2024/01/01 16:20,1,0,1,8.68,45.66,8.65,444,318,0,,,,,,,,,
99,2024/01/01 16:30,,,,8.40,45.80,8.50,222,315,0,,,,,,,,,
100,2024/01/01 16:40,,,,8.01,46.00,8.29,67,327,0,,,,,,,,,
101,2024/01/01 16:50,,,,7.69,46.26,8.12,9,314,0,,,,,,,,,
102,2024/01/01 17:00,,,,7.29,46.48,7.91,2,332,0,,,,,,,,,
103,2024/01/01 17:10,,,,7.10,46.62,7.81,4,330,0,,,,,,,,,
104,2024/01/01 17:20,,,,6.88,46.81,7.70,0,333,0,,,,,,,,,
105,2024/01/01 17:30,,,,6.70,47.00,7.61,0,335,0,,,,,,,,,
106,2024/01/01 17:40,,,,6.62,47.11,7.57,0,324,0,,,,,,,,,
107,2024/01/01 17:50,,,,6.30,47.22,7.41,0,332,0,,,,,,,,,
108,2024/01/01 18:00,,,,5.93,47.46,7.24,0,335,0,,,,,,,,,
109,2024/01/01 18:10,,,,6.01,47.62,7.27,0,332,0,,,,,,,,,
110,2024/01/01 18:20,1,0,1,6.00,47.74,7.27,0,336,0,,,,,,,,,
111,2024/01/01 18:30,,,,5.78,47.92,7.16,0,329,0,,,,,,,,,
112,2024/01/01 18:40,,,,5.33,48.16,6.96,0,335,0,,,,,,,,,
113,2024/01/01 18:50,,,,5.22,48.36,6.91,0,335,0,,,,,,,,,
114,2024/01/01 19:00,,,,5.12,48.51,6.86,0,333,0,,,,,,,,,
115,2024/01/01 19:10,,,,5.19,48.63,6.89,0,323,0,,,,,,,,,
116,2024/01/01 19:20,,,,5.05,48.76,6.83,0,324,0,,,,,,,,,
117,2024/01/01 19:30,,,,5.01,48.88,6.81,0,329,0,,,,,,,,,
118,2024/01/01 19:40,,,,4.89,48.94,6.76,0,323,0,,,,,,,,,
119,2024/01/01 19:50,,,,4.88,49.01,6.75,0,330,0,,,,,,,,,
120,2024/01/01 20:00,,,,4.85,49.10,6.74,0,337,0,,,,,,,,,
121,2024/01/01 20:10,,,,4.89,49.10,6.76,0,335,0,,,,,,,,,
122,2024/01/01 20:20,,,,4.82,49.19,6.72,0,326,0,,,,,,,,,
123,2024/01/01 20:30,,,,4.49,49.35,6.58,0,331,0,,,,,,,,,
124,2024/01/01 20:40,,,,4.02,49.62,6.38,0,328,0,,,,,,,,,
125,2024/01/01 20:50,,,,3.62,49.91,6.21,0,330,0,,,,,,,,,
126,2024/01/01 21:00,,,,3.55,50.10,6.18,0,320,0,,,,,,,,,
127,2024/01/01 21:10,,,,3.62,50.12,6.21,0,327,0,,,,,,,,,
128,2024/01/01 21:20,,,,3.59,50.20,6.19,0,324,0,,,,,,,,,
129,2024/01/01 21:30,,,,3.51,50.36,6.16,0,340,0,,,,,,,,,
130,2024/01/01 21:40,,,,3.42,50.57,6.12,0,330,0,,,,,,,,,
131,2024/01/01 21:50,,,,3.23,50.73,6.05,0,338,0,,,,,,,,,
132,2024/01/01 22:00,,,,2.95,51.00,5.93,0,342,0,,,,,,,,,
133,2024/01/01 22:10,,,,2.83,51.21,5.88,0,345,0,,,,,,,,,
134,2024/01/01 22:20,,,,2.65,51.52,5.82,0,345,0,,,,,,,,,
135,2024/01/01 22:30,,,,2.45,51.86,5.74,0,354,0,,,,,,,,,
136,2024/01/01 22:40,,,,2.28,52.10,5.67,0,362,0,,,,,,,,,
137,2024/01/01 22:50,,,,2.04,52.40,5.58,0,372,0,,,,,,,,,
138,2024/01/01 23:00,,,,1.91,52.60,5.53,0,367,0,,,,,,,,,
139,2024/01/01 23:10,,,,2.04,52.84,5.58,0,361,0,,,,,,,,,
140,2024/01/01 23:20,,,,2.18,53.00,5.63,0,368,0,,,,,,,,,
141,2024/01/01 23:30,,,,2.29,53.13,5.68,0,366,0,,,,,,,,,
142,2024/01/01 23:40,,,,2.19,53.42,5.64,0,362,0,,,,,,,,,
143,2024/01/01 23:50,,,,2.20,53.53,5.64,0,373,0,,,,,,,,,
144,2024/01/02 00:00,,,,2.34,53.56,5.70,0,370,0,,,,,,,,,
145,2024/01/02 00:10,,,,2.20,53.84,5.64,0,370,0,,,,,,,,,
146,2024/01/02 00:20,,,,2.11,54.06,5.61,0,373,0,,,,,,,,,
147,2024/01/02 00:30,,,,2.08,54.30,5.59,0,377,0,,,,,,,,,
148,2024/01/02 00:40,,,,2.02,54.57,5.57,0,371,0,,,,,,,,,
149,2024/01/02 00:50,,,,1.84,54.91,5.51,0,373,0,,,,,,,,,
150,2024/01/02 01:00,,,,1.77,55.17,5.48,0,390,0,,,,,,,,,
151,2024/01/02 01:10,,,,1.65,55.40,5.43,0,377,0,,,,,,,,,
152,2024/01/02 01:20,,,,1.66,55.60,5.44,0,383,0,,,,,,,,,
153,2024/01/02 01:30,,,,1.55,55.84,5.40,0,386,0,,,,,,,,,
154,2024/01/02 01:40,,,,1.68,55.89,5.44,0,385,0,,,,,,,,,
155,2024/01/02 01:50,,,,1.62,56.04,5.42,0,381,0,,,,,,,,,
156,2024/01/02 02:00,,,,1.24,56.43,5.29,0,387,0,,,,,,,,,
157,2024/01/02 02:10,1,0,1,1.16,56.70,5.26,0,394,0,,,,,,,,,
158,2024/01/02 02:20,,,,1.49,56.72,5.37,0,384,0,,,,,,,,,
159,2024/01/02 02:30,,,,2.08,56.58,5.59,0,375,0,,,,,,,,,
160,2024/01/02 02:40,,,,2.55,56.51,5.78,0,372,0,,,,,,,,,
161,2024/01/02 02:50,,,,2.80,56.51,5.87,0,367,0,,,,,,,,,
162,2024/01/02 03:00,,,,2.78,56.68,5.87,0,351,0,,,,,,,,,
163,2024/01/02 03:10,,,,2.35,57.04,5.70,0,364,0,,,,,,,,,
164,2024/01/02 03:20,,,,2.23,57.18,5.65,0,370,0,,,,,,,,,
165,2024/01/02 03:30,,,,2.33,57.21,5.69,0,370,0,,,,,,,,,
166,2024/01/02 03:40,,,,2.42,57.29,5.73,0,373,0,,,,,,,,,
167,2024/01/02 03:50,,,,2.27,57.49,5.67,0,365,0,,,,,,,,,
168,2024/01/02 04:00,,,,2.21,57.69,5.65,0,364,0,,,,,,,,,
169,2024/01/02 04:10,,,,2.33,57.70,5.69,0,364,0,,,,,,,,,
170,2024/01/02 04:20,,,,2.49,57.76,5.75,0,364,0,,,,,,,,,
171,2024/01/02 04:30,,,,2.62,57.76,5.81,0,360,0,,,,,,,,,
172,2024/01/02 04:40,,,,2.89,57.63,5.91,0,360,0,,,,,,,,,
173,2024/01/02 04:50,,,,3.07,57.51,5.98,0,358,0,,,,,,,,,
174,2024/01/02 05:00,,,,3.20,57.60,6.03,0,351,0,,,,,,,,,
175,2024/01/02 05:10,,,,3.24,57.60,6.05,0,353,0,,,,,,,,,
176,2024/01/02 05:20,,,,3.22,57.72,6.04,0,351,0,,,,,,,,,
177,2024/01/02 05:30,,,,2.93,57.97,5.93,0,350,0,,,,,,,,,
178,2024/01/02 05:40,,,,3.06,57.91,5.98,0,349,0,,,,,,,,,
179,2024/01/02 05:50,,,,3.21,57.83,6.04,0,354,0,,,,,,,,,
180,2024/01/02 06:00,,,,3.30,57.88,6.08,0,345,0,,,,,,,,,
181,2024/01/02 06:10,,,,3.30,57.89,6.08,2,352,0,,,,,,,,,
182,2024/01/02 06:20,,,,3.27,58.00,6.07,4,351,0,,,,,,,,,
183,2024/01/02 06:30,,,,3.33,58.00,6.09,1,347,0,,,,,,,,,
184,2024/01/02 06:40,,,,3.49,57.98,6.15,10,354,0,,,,,,,,,
185,2024/01/02 06:50,,,,3.53,57.96,6.17,36,348,0,,,,,,,,,
186,2024/01/02 07:00,,,,3.67,57.91,6.23,83,346,0,,,,,,,,,
187,2024/01/02 07:10,,,,3.87,57.84,6.31,183,352,0,,,,,,,,,
188,2024/01/02 07:20,,,,4.11,57.71,6.42,315,354,0,,,,,,,,,
189,2024/01/02 07:30,,,,4.30,57.61,6.50,431,356,0,,,,,,,,,
190,2024/01/02 07:40,,,,4.61,57.50,6.63,476,362,0,,,,,,,,,
191,2024/01/02 07:50,,,,4.77,57.39,6.70,665,360,0,,,,,,,,,
192,2024/01/02 08:00,,,,4.90,57.33,6.76,888,359,0,,,,,,,,,
193,2024/01/02 08:10,,,,5.28,57.21,6.93,1849,360,0,,,,,,,,,
194,2024/01/02 08:20,,,,5.77,56.99,7.16,1691,362,0,,,,,,,,,
195,2024/01/02 08:30,,,,6.04,56.83,7.29,1534,365,0,,,,,,,,,
196,2024/01/02 08:40,,,,6.31,56.78,7.42,2633,366,0,,,,,,,,,
197,2024/01/02 08:50,,,,7.27,56.29,7.90,3149,346,0,,,,,,,,,
198,2024/01/02 09:00,,,,7.64,55.86,8.09,4007,353,0,,,,,,,,,
199,2024/01/02 09:10,,,,9.11,54.67,8.89,6009,349,0,,,,,,,,,
200,2024/01/02 09:20,,,,10.33,53.37,9.61,6083,359,0,,,,,,,,,
201,2024/01/02 09:30,,,,10.10,53.21,9.47,3108,355,0,,,,,,,,,
202,2024/01/02 09:40,,,,9.06,53.94,8.86,3040,342,0,,,,,,,,,
203,2024/01/02 09:50,,,,8.75,54.23,8.69,2407,331,0,,,,,,,,,
204,2024/01/02 10:00,,,,8.66,54.27,8.64,2611,339,0,,,,,,,,,
205,2024/01/02 10:10,,,,8.54,54.32,8.57,2223,329,0,,,,,,,,,
206,2024/01/02 10:20,,,,8.51,54.30,8.56,1648,335,0,,,,,,,,,
207,2024/01/02 10:30,,,,8.16,54.45,8.37,1286,331,0,,,,,,,,,
208,2024/01/02 10:40,,,,7.88,54.56,8.22,1281,333,0,,,,,,,,,
209,2024/01/02 10:50,,,,7.83,54.57,8.19,1480,342,0,,,,,,,,,
210,2024/01/02 11:00,2,0,2,7.77,54.62,8.16,1747,332,0,,,,,,,,,
211,2024/01/02 11:10,1,0,1,7.60,54.92,8.07,2289,326,0,,,,,,,,,
212,2024/01/02 11:20,,,,7.61,55.18,8.07,2195,334,0,,,,,,,,,
213,2024/01/02 11:30,2,0,2,7.46,55.67,7.99,1698,346,0,,,,,,,,,
214,2024/01/02 11:40,2,0,2,7.16,56.21,7.84,1624,337,0,,,,,,,,,
215,2024/01/02 11:50,4,0,4,6.94,56.62,7.73,1519,336,0,,,,,,,,,
216,2024/01/02 12:00,,,,6.90,57.05,7.71,2214,340,0,,,,,,,,,
217,2024/01/02 12:10,1,0,1,7.18,57.32,7.85,2451,343,0,,,,,,,,,
218,2024/01/02 12:20,6,0,6,7.41,57.58,7.97,2078,340,0,,,,,,,,,
219,2024/01/02 12:30,6,0,6,7.39,58.00,7.96,2390,337,0,,,,,,,,,
220,2024/01/02 12:40,6,0,6,7.30,58.40,7.91,2326,334,0,,,,,,,,,
221,2024/01/02 12:50,9,0,9,7.34,58.71,7.93,3425,338,0,,,,,,,,,
222,2024/01/02 13:00,,,,7.55,58.96,8.04,3118,336,0,,,,,,,,,
223,2024/01/02 13:10,3,0,3,7.59,59.31,8.06,3789,335,0,,,,,,,,,
224,2024/01/02 13:20,1,0,1,8.18,59.37,8.38,7234,329,0,,,,,,,,,
225,2024/01/02 13:30,,,,8.85,59.10,8.74,5699,344,0,,,,,,,,,
226,2024/01/02 13:40,,,,8.31,59.94,8.45,4950,332,0,,,,,,,,,
227,2024/01/02 13:50,,,,8.24,60.46,8.41,3227,332,0,,,,,,,,,
228,2024/01/02 14:00,,,,8.11,60.86,8.34,3190,345,0,,,,,,,,,
229,2024/01/02 14:10,,,,8.44,60.91,8.52,3762,326,0,,,,,,,,,
230,2024/01/02 14:20,,,,8.38,61.10,8.48,2512,347,0,,,,,,,,,
231,2024/01/02 14:30,,,,8.21,61.46,8.39,1800,337,0,,,,,,,,,
232,2024/01/02 14:40,,,,8.00,61.83,8.28,1500,327,0,,,,,,,,,
233,2024/01/02 14:50,,,,7.93,62.07,8.24,1226,339,0,,,,,,,,,
234,2024/01/02 15:00,,,,7.80,62.34,8.17,2043,333,0,,,,,,,,,
235,2024/01/02 15:10,,,,8.15,62.23,8.36,7724,343,0,,,,,,,,,
236,2024/01/02 15:20,,,,9.62,61.06,9.19,7556,349,0,,,,,,,,,
237,2024/01/02 15:30,,,,9.40,61.43,9.06,2568,349,0,,,,,,,,,
238,2024/01/02 15:40,,,,8.71,62.28,8.67,1294,340,0,,,,,,,,,
239,2024/01/02 15:50,,,,8.47,62.64,8.53,1703,352,0,,,,,,,,,
240,2024/01/02 16:00,,,,8.47,62.77,8.53,1656,340,0,,,,,,,,,
241,2024/01/02 16:10,,,,8.30,63.02,8.44,937,342,0,,,,,,,,,
242,2024/01/02 16:20,,,,7.60,63.65,8.07,483,344,0,,,,,,,,,
243,2024/01/02 16:30,,,,6.79,64.47,7.65,230,354,0,,,,,,,,,
244,2024/01/02 16:40,,,,5.77,64.96,7.16,70,350,0,,,,,,,,,
245,2024/01/02 16:50,,,,5.24,65.40,6.91,12,354,0,,,,,,,,,
246,2024/01/02 17:00,,,,4.46,65.76,6.57,2,360,0,,,,,,,,,
247,2024/01/02 17:10,,,,4.18,66.07,6.44,4,361,0,,,,,,,,,
248,2024/01/02 17:20,,,,3.91,66.33,6.33,1,347,0,,,,,,,,,
249,2024/01/02 17:30,,,,4.02,66.50,6.38,0,358,0,,,,,,,,,
250,2024/01/02 17:40,,,,4.48,66.50,6.58,0,363,0,,,,,,,,,
251,2024/01/02 17:50,,,,4.84,66.58,6.73,0,373,0,,,,,,,,,
252,2024/01/02 18:00,,,,4.63,66.82,6.64,0,376,0,,,,,,,,,
253,2024/01/02 18:10,,,,4.52,67.02,6.59,0,378,0,,,,,,,,,
254,2024/01/02 18:20,,,,4.42,67.22,6.55,0,373,0,,,,,,,,,
255,2024/01/02 18:30,,,,4.71,67.26,6.68,0,376,0,,,,,,,,,
256,2024/01/02 18:40,,,,5.23,67.16,6.91,0,383,0,,,,,,,,,
257,2024/01/02 18:50,,,,5.71,67.09,7.13,0,380,0,,,,,,,,,
258,2024/01/02 19:00,,,,6.04,67.18,7.29,0,386,0,,,,,,,,,
259,2024/01/02 19:10,,,,6.24,67.29,7.38,0,383,0,,,,,,,,,
260,2024/01/02 19:20,,,,6.36,67.52,7.44,0,390,0,,,,,,,,,
261,2024/01/02 19:30,1,0,1,6.46,67.72,7.49,0,396,0,,,,,,,,,
262,2024/01/02 19:40,,,,6.60,67.87,7.56,0,390,0,,,,,,,,,
263,2024/01/02 19:50,,,,6.71,68.11,7.61,0,395,0,,,,,,,,,
264,2024/01/02 20:00,,,,6.80,68.25,7.66,0,390,0,,,,,,,,,
265,2024/01/02 20:10,,,,6.74,68.42,7.63,0,395,0,,,,,,,,,
266,2024/01/02 20:20,,,,6.50,68.66,7.51,0,390,0,,,,,,,,,
267,2024/01/02 20:30,,,,6.26,68.79,7.39,0,396,0,,,,,,,,,
268,2024/01/02 20:40,,,,5.60,68.95,7.08,0,390,0,,,,,,,,,
269,2024/01/02 20:50,,,,4.82,69.22,6.73,0,385,0,,,,,,,,,
270,2024/01/02 21:00,,,,4.21,69.56,6.46,0,378,0,,,,,,,,,
271,2024/01/02 21:10,,,,3.57,69.85,6.19,0,372,0,,,,,,,,,
272,2024/01/02 21:20,,,,3.41,69.90,6.12,0,372,0,,,,,,,,,
273,2024/01/02 21:30,,,,3.28,70.01,6.07,0,366,0,,,,,,,,,
274,2024/01/02 21:40,,,,3.43,70.05,6.13,0,368,0,,,,,,,,,
275,2024/01/02 21:50,,,,3.46,70.11,6.14,0,363,0,,,,,,,,,
276,2024/01/02 22:00,,,,3.28,70.28,6.07,0,364,0,,,,,,,,,
277,2024/01/02 22:10,,,,3.12,70.47,6.00,0,362,0,,,,,,,,,
278,2024/01/02 22:20,,,,3.20,70.57,6.03,0,365,0,,,,,,,,,
279,2024/01/02 22:30,,,,3.21,70.60,6.04,0,368,0,,,,,,,,,
280,2024/01/02 22:40,,,,3.20,70.60,6.03,0,367,0,,,,,,,,,
281,2024/01/02 22:50,,,,3.13,70.61,6.01,0,368,0,,,,,,,,,
282,2024/01/02 23:00,,,,2.74,70.79,5.85,0,362,0,,,,,,,,,
283,2024/01/02 23:10,,,,2.70,70.75,5.84,0,366,0,,,,,,,,,
284,2024/01/02 23:20,,,,2.63,70.75,5.81,0,368,0,,,,,,,,,
285,2024/01/02 23:30,,,,2.69,70.72,5.83,0,364,0,,,,,,,,,
286,2024/01/02 23:40,,,,2.80,70.69,5.87,0,357,0,,,,,,,,,
287,2024/01/02 23:50,,,,2.75,70.75,5.85,0,367,0,,,,,,,,,
288,2024/01/03 00:00,,,,2.44,70.92,5.74,0,364,0,,,,,,,,,
289,2024/01/03 00:10,1,0,1,2.38,71.04,5.71,0,366,0,,,,,,,,,
290,2024/01/03 00:20,,,,2.51,70.98,5.76,0,366,0,,,,,,,,,
291,2024/01/03 00:30,,,,2.60,70.94,5.80,0,354,0,,,,,,,,,
292,2024/01/03 00:40,,,,2.62,71.04,5.80,0,360,0,,,,,,,,,
293,2024/01/03 00:50,,,,2.47,71.26,5.75,0,356,0,,,,,,,,,
294,2024/01/03 01:00,,,,2.24,71.48,5.66,0,372,0,,,,,,,,,
295,2024/01/03 01:10,,,,2.30,71.57,5.68,0,365,0,,,,,,,,,
296,2024/01/03 01:20,,,,2.30,71.66,5.68,0,366,0,,,,,,,,,
297,2024/01/03 01:30,,,,2.00,71.91,5.56,0,367,0,,,,,,,,,
298,2024/01/03 01:40,,,,2.11,71.77,5.61,0,363,0,,,,,,,,,
299,2024/01/03 01:50,,,,2.33,71.72,5.69,0,360,0,,,,,,,,,
300,2024/01/03 02:00,,,,2.37,71.68,5.71,0,354,0,,,,,,,,,
301,2024/01/03 02:10,,,,2.12,71.87,5.61,0,355,0,,,,,,,,,
302,2024/01/03 02:20,,,,2.27,71.80,5.67,0,355,0,,,,,,,,,
303,2024/01/03 02:30,,,,1.87,71.99,5.52,0,356,0,,,,,,,,,
304,2024/01/03 02:40,,,,1.59,72.16,5.41,0,360,0,,,,,,,,,
305,2024/01/03 02:50,,,,1.48,72.25,5.37,0,360,0,,,,,,,,,
306,2024/01/03 03:00,,,,1.34,72.28,5.32,0,372,0,,,,,,,,,
307,2024/01/03 03:10,,,,1.15,72.44,5.25,0,372,0,,,,,,,,,
308,2024/01/03 03:20,,,,0.90,72.56,5.16,0,381,0,,,,,,,,,
309,2024/01/03 03:30,,,,0.69,72.73,5.09,0,385,0,,,,,,,,,
310,2024/01/03 03:40,3,0,3,0.49,72.86,5.02,0,391,0,,,,,,,,,
311,2024/01/03 03:50,1,0,1,0.28,72.98,4.95,0,393,0,,,,,,,,,
312,2024/01/03 04:00,,,,0.14,73.06,4.90,0,400,0,,,,,,,,,
313,2024/01/03 04:10,,,,0.30,73.10,4.95,0,395,0,,,,,,,,,
314,2024/01/03 04:20,,,,0.71,73.01,5.10,0,398,0,,,,,,,,,
315,2024/01/03 04:30,,,,0.86,73.09,5.15,0,386,0,,,,,,,,,
316,2024/01/03 04:40,,,,0.90,73.23,5.16,0,392,0,,,,,,,,,
317,2024/01/03 04:50,,,,1.30,73.22,5.31,0,386,0,,,,,,,,,
318,2024/01/03 05:00,,,,1.40,73.30,5.34,0,386,0,,,,,,,,,
319,2024/01/03 05:10,,,,1.41,73.42,5.35,0,381,0,,,,,,,,,
320,2024/01/03 05:20,,,,1.05,73.59,5.22,0,386,0,,,,,,,,,
321,2024/01/03 05:30,,,,0.72,73.72,5.10,0,391,0,,,,,,,,,
322,2024/01/03 05:40,,,,0.58,73.80,5.05,0,394,0,,,,,,,,,
323,2024/01/03 05:50,,,,0.69,73.79,5.09,0,397,0,,,,,,,,,
324,2024/01/03 06:00,,,,0.77,73.76,5.12,1,395,0,,,,,,,,,
325,2024/01/03 06:10,,,,0.74,73.79,5.11,4,398,0,,,,,,,,,
326,2024/01/03 06:20,,,,0.57,73.98,5.05,4,403,0,,,,,,,,,
327,2024/01/03 06:30,,,,0.66,73.92,5.08,2,410,0,,,,,,,,,
328,2024/01/03 06:40,,,,1.12,73.80,5.24,39,390,0,,,,,,,,,
329,2024/01/03 06:50,,,,1.22,73.93,5.28,116,393,0,,,,,,,,,
330,2024/01/03 07:00,,,,1.66,73.67,5.44,300,389,0,,,,,,,,,
331,2024/01/03 07:10,,,,2.24,73.39,5.66,598,373,0,,,,,,,,,
332,2024/01/03 07:20,,,,2.97,73.10,5.94,790,368,0,,,,,,,,,
333,2024/01/03 07:30,,,,3.55,72.94,6.18,1209,360,0,,,,,,,,,
334,2024/01/03 07:40,,,,4.08,72.85,6.40,1300,370,0,,,,,,,,,
335,2024/01/03 07:50,,,,4.73,72.72,6.69,1227,372,0,,,,,,,,,
336,2024/01/03 08:00,,,,5.26,72.40,6.92,1330,377,0,,,,,,,,,
337,2024/01/03 08:10,,,,5.69,72.30,7.12,1508,374,0,,,,,,,,,
338,2024/01/03 08:20,,,,6.07,72.24,7.30,1666,381,0,,,,,,,,,
339,2024/01/03 08:30,,,,6.56,72.20,7.54,1854,374,0,,,,,,,,,
340,2024/01/03 08:40,,,,6.98,72.00,7.75,2018,364,0,,,,,,,,,
341,2024/01/03 08:50,,,,7.50,71.67,8.02,2146,363,0,,,,,,,,,
342,2024/01/03 09:00,,,,7.79,71.47,8.17,2223,363,0,,,,,,,,,
343,2024/01/03 09:10,,,,8.10,71.27,8.33,2606,363,0,,,,,,,,,
344,2024/01/03 09:20,,,,8.58,71.01,8.59,3086,372,0,,,,,,,,,
345,2024/01/03 09:30,,,,9.38,70.34,9.05,4269,368,0,,,,,,,,,
346,2024/01/03 09:40,,,,10.70,69.22,9.84,4787,377,0,,,,,,,,,
347,2024/01/03 09:50,,,,11.44,68.52,10.31,5635,371,0,,,,,,,,,
348,2024/01/03 10:00,,,,12.61,67.21,11.09,5989,388,0,,,,,,,,,
349,2024/01/03 10:10,,,,13.62,65.97,11.80,10052,396,0,,,,,,,,,
350,2024/01/03 10:20,,,,16.66,61.58,14.20,10637,405,0,,,,,,,,,
351,2024/01/03 10:30,,,,16.53,61.44,14.09,5291,400,0,,,,,,,,,
352,2024/01/03 10:40,,,,15.33,63.26,13.10,5247,397,0,,,,,,,,,
353,2024/01/03 10:50,,,,15.27,63.90,13.05,4519,388,0,,,,,,,,,
354,2024/01/03 11:00,1,0,1,14.88,64.29,12.75,4749,389,0,,,,,,,,,
355,2024/01/03 11:10,2,0,2,14.63,64.46,12.56,6048,389,0,,,,,,,,,
356,2024/01/03 11:20,,,,15.27,63.68,13.05,7019,381,0,,,,,,,,,
357,2024/01/03 11:30,,,,15.60,63.16,13.32,5950,387,0,,,,,,,,,
358,2024/01/03 11:40,1,0,1,15.51,63.41,13.25,5982,387,0,,,,,,,,,
359,2024/01/03 11:50,,,,15.63,63.39,13.35,8635,380,0,,,,,,,,,
360,2024/01/03 12:00,,,,15.98,62.77,13.63,9869,383,0,,,,,,,,,
361,2024/01/03 12:10,,,,16.14,62.48,13.76,6194,378,0,,,,,,,,,
362,2024/01/03 12:20,1,0,1,15.49,62.90,13.23,4188,378,0,,,,,,,,,
363,2024/01/03 12:30,,,,14.84,63.39,12.72,5791,388,0,,,,,,,,,
364,2024/01/03 12:40,,,,15.24,62.79,13.03,7881,385,0,,,,,,,,,
365,2024/01/03 12:50,,,,15.16,62.66,12.96,4456,393,0,,,,,,,,,
366,2024/01/03 13:00,,,,14.53,63.32,12.48,6326,386,0,,,,,,,,,
367,2024/01/03 13:10,,,,14.64,62.92,12.56,8160,384,0,,,,,,,,,
368,2024/01/03 13:20,3,0,3,15.25,61.58,13.04,17941,405,0,,,,,,,,,
369,2024/01/03 13:30,1,0,1,15.50,60.66,13.24,4622,396,0,,,,,,,,,
370,2024/01/03 13:40,,,,14.15,62.33,12.19,4197,390,0,,,,,,,,,
371,2024/01/03 13:50,1,0,1,14.36,62.16,12.35,3203,397,0,,,,,,,,,
372,2024/01/03 14:00,,,,13.84,62.46,11.96,2442,388,0,,,,,,,,,
373,2024/01/03 14:10,,,,13.22,62.77,11.51,2670,376,0,,,,,,,,,
374,2024/01/03 14:20,,,,13.38,62.51,11.63,3355,379,0,,,,,,,,,
375,2024/01/03 14:30,1,0,1,13.31,62.41,11.58,2601,386,0,,,,,,,,,
376,2024/01/03 14:40,,,,13.09,62.43,11.42,2480,377,0,,,,,,,,,
377,2024/01/03 14:50,,,,12.89,62.41,11.28,2107,372,0,,,,,,,,,
378,2024/01/03 15:00,,,,12.71,62.35,11.16,1316,371,0,,,,,,,,,
379,2024/01/03 15:10,1,0,1,12.43,62.50,10.96,2032,371,0,,,,,,,,,
380,2024/01/03 15:20,,,,12.56,62.42,11.05,1945,378,0,,,,,,,,,
381,2024/01/03 15:30,,,,12.11,62.71,10.75,1635,368,0,,,,,,,,,
382,2024/01/03 15:40,,,,11.90,62.81,10.61,2448,383,0,,,,,,,,,
383,2024/01/03 15:50,,,,11.97,62.63,10.65,1670,378,0,,,,,,,,,
384,2024/01/03 16:00,,,,11.36,63.01,10.25,473,364,0,,,,,,,,,
385,2024/01/03 16:10,,,,10.57,63.61,9.76,377,373,0,,,,,,,,,
386,2024/01/03 16:20,1,0,1,9.92,64.09,9.36,252,380,0,,,,,,,,,
387,2024/01/03 16:30,,,,9.29,64.49,8.99,89,377,0,,,,,,,,,
388,2024/01/03 16:40,,,,8.99,64.73,8.82,34,366,0,,,,,,,,,
389,2024/01/03 16:50,,,,8.60,64.99,8.61,4,359,0,,,,,,,,,
390,2024/01/03 17:00,,,,8.50,65.15,8.55,4,372,0,,,,,,,,,
391,2024/01/03 17:10,,,,8.45,65.31,8.52,2,378,0,,,,,,,,,
392,2024/01/03 17:20,,,,8.40,65.42,8.50,0,375,0,,,,,,,,,
393,2024/01/03 17:30,,,,8.44,65.50,8.52,0,370,0,,,,,,,,,